PST,Max TemperatureF,Mean TemperatureF,Min TemperatureF,Max Dew PointF,MeanDew PointF,Min DewpointF,Max Humidity, Mean Humidity, Min Humidity, Max Sea Level PressureIn, Mean Sea Level PressureIn, Min Sea Level PressureIn, Max VisibilityMiles, Mean VisibilityMiles, Min VisibilityMiles, Max Wind SpeedMPH, Mean Wind SpeedMPH, Max Gust SpeedMPH,PrecipitationIn, CloudCover, Events, WindDirDegrees
2014-2-1,37,29,21,25,22,19,89,74,48,30.05,29.99,29.95,10,10,10,10,5,,0.00,1,,171
2014-2-2,37,29,21,27,23,19,92,75,57,29.95,29.87,29.81,10,10,10,8,4,,0.00,5,,119
2014-2-3,39,32,26,28,25,23,92,80,57,29.92,29.85,29.80,10,10,10,9,4,,0.00,6,,197
2014-2-4,39,33,27,23,19,15,75,58,39,29.98,29.93,29.87,10,10,10,10,5,,0.00,5,,219
2014-2-5,45,34,24,24,21,13,88,62,27,29.99,29.92,29.86,10,10,10,10,4,,0.00,3,,177
2014-2-6,46,39,30,34,30,22,96,82,58,29.91,29.83,29.72,10,7,1,8,4,,0.05,6,Snow,172
2014-2-7,51,40,30,30,27,24,89,58,35,29.87,29.79,29.74,10,10,10,18,8,24,0.00,5,,186
2014-2-8,60,50,41,38,35,31,70,54,39,30.01,29.91,29.84,10,10,10,22,12,31,0.00,4,,198
2014-2-9,57,49,39,46,40,38,93,75,51,30.09,29.96,29.91,10,10,10,15,6,,0.06,7,Rain,210
2014-2-10,55,46,36,39,36,33,97,81,45,30.23,30.10,29.99,10,10,6,14,5,,0.05,5,Rain,135
2014-2-11,55,42,28,36,31,23,92,66,29,30.20,30.09,30.04,10,10,10,6,3,,0.00,5,,149
2014-2-12,66,52,39,34,26,16,79,42,17,30.14,30.03,29.98,10,10,10,15,7,,0.00,5,,210
2014-2-13,63,51,39,44,35,24,77,54,36,30.13,30.04,30.01,10,10,10,12,7,,0.00,5,Rain,150
2014-2-14,72,58,45,41,28,15,83,41,13,30.05,29.96,29.92,10,10,10,14,10,,0.00,4,,186
2014-2-15,72,58,43,31,23,16,45,29,12,29.99,29.88,29.83,10,9,2,39,14,53,0.00,4,,203
2014-2-16,61,48,32,31,21,8,66,37,12,30.11,29.97,29.81,10,10,10,31,10,44,0.00,0,,287
2014-2-17,64,46,28,21,13,0,64,33,8,30.02,29.96,29.90,10,10,10,17,7,,0.00,0,,250
2014-2-18,60,44,28,22,16,12,58,34,15,30.16,30.00,29.84,10,10,10,14,6,,0.00,5,,171
2014-2-19,50,40,28,39,18,3,71,39,15,30.12,29.97,29.82,10,10,9,25,14,41,0.00,2,,324
2014-2-20,50,34,19,18,14,12,74,44,23,30.26,30.12,30.04,10,10,10,7,3,,0.00,3,,191
2014-2-21,55,42,28,42,22,13,64,43,25,30.17,30.02,29.94,10,10,10,7,2,,0.00,2,,343
2014-2-22,64,50,36,29,22,15,46,31,16,30.07,29.95,29.89,10,10,10,5,1,,0.00,1,,21
2014-2-23,68,64,55,24,20,15,27,19,14,30.06,29.94,29.88,10,10,10,7,3,,0.00,1,,50
2014-2-24,66,49,32,24,20,15,50,31,16,30.07,29.95,29.89,10,10,10,6,2,,0.00,1,,21
2014-2-25,66,50,33,25,22,15,56,33,16,30.03,29.91,29.84,10,10,10,6,2,,0.00,2,,50
2014-2-26,64,52,41,37,25,17,66,35,18,29.93,29.79,29.67,10,10,6,15,4,,0.00,7,Rain,191
2014-2-27,59,47,35,41,32,23,86,61,27,29.79,29.72,29.67,10,10,6,20,11,26,0.10,4,Rain,258
2014-2-28,55,44,32,40,34,27,89,72,45,29.68,29.52,29.40,10,10,4,24,8,30,0.06,6,Rain,169